Private Wetterstation Sandau
Wetterdaten: Sonntag, 14.10.2012
Datum Zeit Temp. A. Feuchte A. Luftdruck Regen Wind Richtung Richtung Taupunkt Windchill
14.10.2012 00:01 8,4 C 83 % 1006,4 hPa 0,0 l/m 1,1 km/h (1 Bft) SO 135 5,7 C 8,4 C
14.10.2012 00:06 8,4 C 83 % 1006,3 hPa 0,0 l/m 0,0 km/h (0 Bft) SO 135 5,7 C 8,4 C
14.10.2012 00:11 8,4 C 83 % 1006,2 hPa 0,0 l/m 1,8 km/h (1 Bft) SO 135 5,7 C 8,4 C
14.10.2012 00:16 8,3 C 83 % 1006,2 hPa 0,0 l/m 0,0 km/h (0 Bft) O-SO 112 5,6 C 8,3 C
14.10.2012 00:21 8,2 C 83 % 1006,1 hPa 0,0 l/m 2,9 km/h (1 Bft) O-SO 112 5,5 C 8,2 C
14.10.2012 00:26 8,1 C 83 % 1006,2 hPa 0,0 l/m 4,7 km/h (1 Bft) O-SO 112 5,4 C 7,7 C
14.10.2012 00:31 7,9 C 83 % 1006,0 hPa 0,0 l/m 5,8 km/h (2 Bft) O-SO 112 5,2 C 7,1 C
14.10.2012 00:36 7,7 C 84 % 1005,9 hPa 0,0 l/m 3,2 km/h (1 Bft) O-SO 112 5,2 C 7,7 C
14.10.2012 00:41 7,6 C 84 % 1005,9 hPa 0,0 l/m 3,2 km/h (1 Bft) O-SO 112 5,1 C 7,6 C
14.10.2012 00:46 7,5 C 85 % 1005,9 hPa 0,0 l/m 6,1 km/h (2 Bft) S-SO 157 5,1 C 6,6 C
14.10.2012 00:51 7,6 C 85 % 1005,6 hPa 0,0 l/m 5,0 km/h (1 Bft) SO 135 5,2 C 7,0 C
14.10.2012 00:56 7,6 C 85 % 1005,5 hPa 0,0 l/m 2,9 km/h (1 Bft) SO 135 5,2 C 7,6 C
14.10.2012 01:01 7,8 C 85 % 1005,5 hPa 0,0 l/m 4,0 km/h (1 Bft) SO 135 5,4 C 7,8 C
14.10.2012 01:06 7,8 C 85 % 1005,3 hPa 0,0 l/m 4,0 km/h (1 Bft) SO 135 5,4 C 7,8 C
14.10.2012 01:11 7,8 C 85 % 1005,1 hPa 0,0 l/m 2,5 km/h (1 Bft) SO 135 5,4 C 7,8 C
14.10.2012 01:16 7,8 C 85 % 1005,1 hPa 0,0 l/m 0,0 km/h (0 Bft) O-SO 112 5,4 C 7,8 C
14.10.2012 01:21 7,8 C 84 % 1005,0 hPa 0,0 l/m 1,8 km/h (1 Bft) O-SO 112 5,3 C 7,8 C
14.10.2012 01:26 7,6 C 85 % 1005,0 hPa 0,0 l/m 1,4 km/h (1 Bft) SO 135 5,2 C 7,6 C
14.10.2012 01:31 7,6 C 85 % 1004,8 hPa 0,0 l/m 4,7 km/h (1 Bft) SO 135 5,2 C 7,1 C
14.10.2012 01:36 7,5 C 85 % 1004,6 hPa 0,0 l/m 4,7 km/h (1 Bft) O-NO 67 5,1 C 7,0 C
14.10.2012 01:41 7,5 C 85 % 1004,6 hPa 0,0 l/m 2,5 km/h (1 Bft) SO 135 5,1 C 7,5 C
14.10.2012 01:46 7,4 C 85 % 1004,5 hPa 0,0 l/m 2,5 km/h (1 Bft) O-SO 112 5,0 C 7,4 C
14.10.2012 01:51 7,4 C 85 % 1004,5 hPa 0,0 l/m 8,3 km/h (2 Bft) SO 135 5,0 C 5,9 C
14.10.2012 01:56 7,4 C 85 % 1004,4 hPa 0,0 l/m 4,3 km/h (1 Bft) SO 135 5,0 C 7,4 C
14.10.2012 02:01 7,5 C 85 % 1004,3 hPa 0,0 l/m 4,3 km/h (1 Bft) SO 135 5,1 C 7,5 C
14.10.2012 02:06 7,4 C 85 % 1004,2 hPa 0,0 l/m 5,0 km/h (1 Bft) O-SO 112 5,0 C 6,8 C
14.10.2012 02:11 7,4 C 85 % 1004,2 hPa 0,0 l/m 7,2 km/h (2 Bft) S-SO 157 5,0 C 6,1 C
14.10.2012 02:16 7,4 C 85 % 1004,2 hPa 0,0 l/m 5,8 km/h (2 Bft) SO 135 5,0 C 6,5 C
14.10.2012 02:21 7,4 C 85 % 1004,2 hPa 0,0 l/m 2,5 km/h (1 Bft) S-SO 157 5,0 C 7,4 C
14.10.2012 02:26 7,4 C 85 % 1004,0 hPa 0,0 l/m 0,0 km/h (0 Bft) O-SO 112 5,0 C 7,4 C
14.10.2012 02:31 7,4 C 86 % 1004,0 hPa 0,0 l/m 2,9 km/h (1 Bft) O-SO 112 5,2 C 7,4 C
14.10.2012 02:36 7,3 C 85 % 1003,8 hPa 0,0 l/m 1,8 km/h (1 Bft) O 90 4,9 C 7,3 C
14.10.2012 02:41 7,3 C 86 % 1003,8 hPa 0,0 l/m 0,0 km/h (0 Bft) O-SO 112 5,1 C 7,3 C
14.10.2012 02:46 7,3 C 86 % 1003,8 hPa 0,0 l/m 2,9 km/h (1 Bft) SO 135 5,1 C 7,3 C
14.10.2012 02:51 7,2 C 86 % 1003,7 hPa 0,0 l/m 3,2 km/h (1 Bft) O-SO 112 5,0 C 7,2 C
14.10.2012 02:56 7,2 C 86 % 1003,5 hPa 0,0 l/m 5,8 km/h (2 Bft) O-SO 112 5,0 C 6,3 C
14.10.2012 03:01 7,2 C 86 % 1003,5 hPa 0,0 l/m 4,0 km/h (1 Bft) SO 135 5,0 C 7,2 C
14.10.2012 03:06 7,3 C 86 % 1003,5 hPa 0,0 l/m 7,6 km/h (2 Bft) S 180 5,1 C 5,9 C
14.10.2012 03:11 7,4 C 86 % 1003,6 hPa 0,0 l/m 5,8 km/h (2 Bft) S-SO 157 5,2 C 6,5 C
14.10.2012 03:16 7,6 C 86 % 1003,6 hPa 0,0 l/m 7,2 km/h (2 Bft) SO 135 5,4 C 6,4 C
14.10.2012 03:21 7,8 C 86 % 1003,5 hPa 0,0 l/m 8,6 km/h (2 Bft) W-SW 247 5,6 C 6,3 C
14.10.2012 03:26 7,9 C 85 % 1003,5 hPa 0,0 l/m 8,3 km/h (2 Bft) S-SO 157 5,5 C 6,5 C
14.10.2012 03:31 8,1 C 85 % 1003,6 hPa 0,0 l/m 8,3 km/h (2 Bft) SW 225 5,7 C 6,7 C
14.10.2012 03:36 8,2 C 84 % 1003,7 hPa 0,0 l/m 8,3 km/h (2 Bft) S 180 5,7 C 6,8 C
14.10.2012 03:41 8,2 C 84 % 1003,5 hPa 0,0 l/m 4,0 km/h (1 Bft) SW 225 5,7 C 8,2 C
14.10.2012 03:46 8,3 C 84 % 1003,4 hPa 0,0 l/m 6,8 km/h (2 Bft) S 180 5,8 C 7,3 C
14.10.2012 03:51 8,3 C 84 % 1003,4 hPa 0,0 l/m 4,7 km/h (1 Bft) SW 225 5,8 C 7,9 C
14.10.2012 03:56 8,4 C 83 % 1003,5 hPa 0,0 l/m 6,8 km/h (2 Bft) S-SW 202 5,7 C 7,4 C
14.10.2012 04:01 8,4 C 83 % 1003,3 hPa 0,0 l/m 6,5 km/h (2 Bft) S 180 5,7 C 7,5 C
14.10.2012 04:06 8,4 C 83 % 1003,5 hPa 0,0 l/m 4,7 km/h (1 Bft) S-SW 202 5,7 C 8,0 C
14.10.2012 04:11 8,4 C 83 % 1003,5 hPa 0,0 l/m 4,3 km/h (1 Bft) S-SO 157 5,7 C 8,4 C
14.10.2012 04:16 8,5 C 83 % 1003,5 hPa 0,0 l/m 6,1 km/h (2 Bft) S 180 5,8 C 7,7 C
14.10.2012 04:21 8,5 C 83 % 1003,5 hPa 0,0 l/m 13,0 km/h (3 Bft) SO 135 5,8 C 6,3 C
14.10.2012 04:26 8,5 C 83 % 1003,4 hPa 0,0 l/m 4,0 km/h (1 Bft) S 180 5,8 C 8,5 C
14.10.2012 04:31 8,4 C 83 % 1003,3 hPa 0,0 l/m 2,9 km/h (1 Bft) S-SO 157 5,7 C 8,4 C
14.10.2012 04:36 8,4 C 84 % 1003,2 hPa 0,0 l/m 10,1 km/h (2 Bft) S-SO 157 5,9 C 6,7 C
14.10.2012 04:41 8,4 C 84 % 1002,7 hPa 0,5 l/m 6,5 km/h (2 Bft) S-SO 157 5,9 C 7,5 C
14.10.2012 04:46 8,4 C 85 % 1002,5 hPa 0,0 l/m 1,8 km/h (1 Bft) S 180 6,0 C 8,4 C
14.10.2012 04:51 8,3 C 85 % 1002,6 hPa 0,0 l/m 4,0 km/h (1 Bft) S 180 5,9 C 8,3 C
14.10.2012 04:56 8,3 C 85 % 1002,7 hPa 0,0 l/m 5,8 km/h (2 Bft) S 180 5,9 C 7,6 C
14.10.2012 05:01 8,2 C 86 % 1002,7 hPa 0,0 l/m 3,2 km/h (1 Bft) S-SO 157 6,0 C 8,2 C
14.10.2012 05:06 8,1 C 86 % 1002,7 hPa 0,0 l/m 3,6 km/h (1 Bft) S 180 5,9 C 8,1 C
14.10.2012 05:11 8,1 C 86 % 1002,7 hPa 0,0 l/m 3,6 km/h (1 Bft) S-SO 157 5,9 C 8,1 C
14.10.2012 05:16 8,1 C 87 % 1002,7 hPa 0,0 l/m 2,9 km/h (1 Bft) SO 135 6,1 C 8,1 C
14.10.2012 05:21 8,1 C 87 % 1002,7 hPa 0,0 l/m 2,5 km/h (1 Bft) S 180 6,1 C 8,1 C
14.10.2012 05:26 8,0 C 87 % 1002,7 hPa 0,0 l/m 4,3 km/h (1 Bft) S-SO 157 6,0 C 8,0 C
14.10.2012 05:31 7,9 C 87 % 1002,6 hPa 0,0 l/m 7,6 km/h (2 Bft) S 180 5,9 C 6,6 C
14.10.2012 05:36 7,9 C 87 % 1002,7 hPa 0,0 l/m 3,6 km/h (1 Bft) S 180 5,9 C 7,9 C
14.10.2012 05:41 7,9 C 88 % 1002,7 hPa 0,0 l/m 4,7 km/h (1 Bft) S-SW 202 6,0 C 7,5 C
14.10.2012 05:46 7,9 C 88 % 1002,7 hPa 0,0 l/m 7,6 km/h (2 Bft) SW 225 6,0 C 6,6 C
14.10.2012 05:51 7,9 C 88 % 1002,8 hPa 0,0 l/m 2,2 km/h (1 Bft) S-SW 202 6,0 C 7,9 C
14.10.2012 05:56 7,9 C 88 % 1002,6 hPa 0,0 l/m 2,5 km/h (1 Bft) S 180 6,0 C 7,9 C
14.10.2012 06:01 7,9 C 88 % 1002,7 hPa 0,0 l/m 0,0 km/h (0 Bft) S-SW 202 6,0 C 7,9 C
14.10.2012 06:06 7,9 C 88 % 1002,7 hPa 0,0 l/m 7,6 km/h (2 Bft) S-SW 202 6,0 C 6,6 C
14.10.2012 06:11 7,9 C 88 % 1002,5 hPa 0,5 l/m 6,1 km/h (2 Bft) SW 225 6,0 C 7,0 C
14.10.2012 06:16 7,9 C 88 % 1002,8 hPa 0,0 l/m 6,5 km/h (2 Bft) SW 225 6,0 C 6,9 C
14.10.2012 06:21 7,9 C 88 % 1002,7 hPa 0,0 l/m 7,2 km/h (2 Bft) SW 225 6,0 C 6,7 C
14.10.2012 06:26 7,9 C 89 % 1002,6 hPa 0,0 l/m 8,6 km/h (2 Bft) SW 225 6,2 C 6,4 C
14.10.2012 06:31 7,9 C 89 % 1002,7 hPa 0,0 l/m 7,6 km/h (2 Bft) S-SW 202 6,2 C 6,6 C
14.10.2012 06:36 7,9 C 89 % 1002,7 hPa 0,0 l/m 4,3 km/h (1 Bft) S-SW 202 6,2 C 7,9 C
14.10.2012 06:41 7,9 C 89 % 1002,7 hPa 0,0 l/m 10,4 km/h (2 Bft) W-SW 247 6,2 C 6,0 C
14.10.2012 06:46 7,9 C 89 % 1002,5 hPa 0,0 l/m 6,1 km/h (2 Bft) S-SW 202 6,2 C 7,0 C
14.10.2012 06:51 7,9 C 89 % 1002,6 hPa 0,0 l/m 10,1 km/h (2 Bft) S-SW 202 6,2 C 6,1 C
14.10.2012 06:56 7,9 C 89 % 1002,6 hPa 0,0 l/m 3,2 km/h (1 Bft) S-SW 202 6,2 C 7,9 C
14.10.2012 07:01 7,9 C 89 % 1002,7 hPa 0,0 l/m 6,5 km/h (2 Bft) S 180 6,2 C 6,9 C
14.10.2012 07:06 7,8 C 89 % 1002,7 hPa 0,0 l/m 4,3 km/h (1 Bft) S-SW 202 6,1 C 7,8 C
14.10.2012 07:11 7,9 C 89 % 1002,7 hPa 0,0 l/m 9,4 km/h (2 Bft) S-SW 202 6,2 C 6,2 C
14.10.2012 07:16 7,9 C 89 % 1002,9 hPa 0,0 l/m 5,8 km/h (2 Bft) SW 225 6,2 C 7,1 C
14.10.2012 07:21 7,9 C 89 % 1003,0 hPa 0,0 l/m 3,2 km/h (1 Bft) S-SW 202 6,2 C 7,9 C
14.10.2012 07:26 7,8 C 89 % 1002,7 hPa 0,0 l/m 6,1 km/h (2 Bft) SW 225 6,1 C 6,9 C
14.10.2012 07:31 7,8 C 89 % 1002,7 hPa 0,0 l/m 3,6 km/h (1 Bft) SW 225 6,1 C 7,8 C
14.10.2012 07:36 7,8 C 89 % 1002,9 hPa 0,0 l/m 2,9 km/h (1 Bft) S-SW 202 6,1 C 7,8 C
14.10.2012 07:41 7,8 C 89 % 1003,0 hPa 0,0 l/m 6,8 km/h (2 Bft) SW 225 6,1 C 6,7 C
14.10.2012 07:46 7,8 C 89 % 1003,0 hPa 0,0 l/m 2,2 km/h (1 Bft) S-SW 202 6,1 C 7,8 C
14.10.2012 07:51 7,8 C 89 % 1003,0 hPa 0,0 l/m 2,9 km/h (1 Bft) S-SW 202 6,1 C 7,8 C
14.10.2012 07:56 7,8 C 89 % 1003,0 hPa 0,0 l/m 4,0 km/h (1 Bft) SW 225 6,1 C 7,8 C
14.10.2012 08:01 7,8 C 89 % 1003,1 hPa 0,0 l/m 7,2 km/h (2 Bft) W 270 6,1 C 6,6 C
14.10.2012 08:06 7,8 C 89 % 1002,7 hPa 0,0 l/m 6,5 km/h (2 Bft) S 180 6,1 C 6,8 C
14.10.2012 08:11 7,8 C 89 % 1002,7 hPa 0,0 l/m 6,1 km/h (2 Bft) SW 225 6,1 C 6,9 C
14.10.2012 08:16 7,8 C 89 % 1002,7 hPa 0,0 l/m 4,7 km/h (1 Bft) S 180 6,1 C 7,4 C
14.10.2012 08:21 7,9 C 89 % 1002,9 hPa 0,0 l/m 4,7 km/h (1 Bft) W-SW 247 6,2 C 7,5 C
14.10.2012 08:26 7,9 C 89 % 1002,9 hPa 0,0 l/m 5,8 km/h (2 Bft) W-SW 247 6,2 C 7,1 C
14.10.2012 08:31 7,9 C 89 % 1002,9 hPa 0,0 l/m 6,5 km/h (2 Bft) S-SW 202 6,2 C 6,9 C
14.10.2012 08:36 8,0 C 89 % 1002,9 hPa 0,0 l/m 12,6 km/h (3 Bft) W 270 6,3 C 5,8 C
14.10.2012 08:41 8,1 C 89 % 1003,1 hPa 0,0 l/m 9,7 km/h (2 Bft) W 270 6,4 C 6,4 C
14.10.2012 08:46 8,1 C 88 % 1002,9 hPa 0,0 l/m 7,2 km/h (2 Bft) SW 225 6,2 C 7,0 C
14.10.2012 08:51 8,1 C 89 % 1002,9 hPa 0,0 l/m 5,8 km/h (2 Bft) SW 225 6,4 C 7,3 C
14.10.2012 08:56 8,1 C 89 % 1003,0 hPa 0,0 l/m 9,4 km/h (2 Bft) S-SW 202 6,4 C 6,5 C
14.10.2012 09:01 8,2 C 88 % 1003,1 hPa 0,0 l/m 8,6 km/h (2 Bft) S-SW 202 6,3 C 6,8 C
14.10.2012 09:06 8,2 C 88 % 1003,1 hPa 0,0 l/m 8,6 km/h (2 Bft) S-SW 202 6,3 C 6,8 C
14.10.2012 09:11 8,3 C 88 % 1003,1 hPa 0,0 l/m 5,8 km/h (2 Bft) S 180 6,4 C 7,6 C
14.10.2012 09:16 8,4 C 87 % 1003,2 hPa 0,0 l/m 9,7 km/h (2 Bft) S-SW 202 6,4 C 6,8 C
14.10.2012 09:21 8,4 C 87 % 1003,2 hPa 0,0 l/m 11,9 km/h (2 Bft) SW 225 6,4 C 6,4 C
14.10.2012 09:26 8,4 C 86 % 1003,3 hPa 0,0 l/m 8,3 km/h (2 Bft) W-SW 247 6,2 C 7,1 C
14.10.2012 09:31 8,4 C 86 % 1003,3 hPa 0,0 l/m 14,0 km/h (3 Bft) S-SW 202 6,2 C 6,1 C
14.10.2012 09:36 8,5 C 85 % 1003,3 hPa 0,0 l/m 11,2 km/h (2 Bft) SW 225 6,1 C 6,6 C
14.10.2012 09:41 8,5 C 85 % 1003,2 hPa 0,0 l/m 8,3 km/h (2 Bft) W-SW 247 6,1 C 7,2 C
14.10.2012 09:46 8,6 C 85 % 1002,9 hPa 0,0 l/m 6,1 km/h (2 Bft) SW 225 6,2 C 7,8 C
14.10.2012 09:51 8,7 C 84 % 1003,2 hPa 0,0 l/m 7,6 km/h (2 Bft) SW 225 6,2 C 7,6 C
14.10.2012 09:56 8,8 C 84 % 1003,2 hPa 0,0 l/m 8,3 km/h (2 Bft) S-SW 202 6,2 C 7,5 C
14.10.2012 10:01 8,9 C 84 % 1003,2 hPa 0,0 l/m 7,2 km/h (2 Bft) W 270 6,3 C 7,9 C
14.10.2012 10:06 8,9 C 84 % 1003,1 hPa 0,0 l/m 15,8 km/h (3 Bft) S-SW 202 6,3 C 6,5 C
14.10.2012 10:11 8,9 C 83 % 1003,1 hPa 0,0 l/m 7,6 km/h (2 Bft) W 270 6,2 C 7,8 C
14.10.2012 10:16 8,9 C 83 % 1003,1 hPa 0,0 l/m 14,4 km/h (3 Bft) W 270 6,2 C 6,6 C
14.10.2012 10:21 8,9 C 82 % 1003,1 hPa 0,0 l/m 10,8 km/h (2 Bft) W-SW 247 6,0 C 7,2 C
14.10.2012 10:26 9,1 C 82 % 1003,0 hPa 0,0 l/m 10,8 km/h (2 Bft) S-SW 202 6,2 C 7,4 C
14.10.2012 10:31 9,1 C 82 % 1003,2 hPa 0,0 l/m 9,4 km/h (2 Bft) S-SW 202 6,2 C 7,7 C
14.10.2012 10:36 9,3 C 82 % 1003,2 hPa 0,0 l/m 6,8 km/h (2 Bft) SW 225 6,4 C 8,5 C
14.10.2012 10:41 9,4 C 81 % 1003,0 hPa 0,0 l/m 6,5 km/h (2 Bft) W-SW 247 6,3 C 8,7 C
14.10.2012 10:46 9,7 C 81 % 1003,0 hPa 0,0 l/m 14,4 km/h (3 Bft) S-SW 202 6,6 C 7,6 C
14.10.2012 10:51 9,9 C 79 % 1003,0 hPa 0,0 l/m 15,1 km/h (3 Bft) W-SW 247 6,4 C 7,8 C
14.10.2012 10:56 10,2 C 78 % 1003,1 hPa 0,0 l/m 14,4 km/h (3 Bft) SW 225 6,5 C 10,2 C
14.10.2012 11:01 10,4 C 78 % 1003,1 hPa 0,0 l/m 4,7 km/h (1 Bft) S-SW 202 6,7 C 10,4 C
14.10.2012 11:06 10,7 C 77 % 1003,1 hPa 0,0 l/m 11,9 km/h (2 Bft) SW 225 6,8 C 10,7 C
14.10.2012 11:11 10,9 C 75 % 1003,0 hPa 0,0 l/m 10,1 km/h (2 Bft) S-SO 157 6,6 C 10,9 C
14.10.2012 11:16 11,1 C 75 % 1003,0 hPa 0,0 l/m 18,4 km/h (3 Bft) W 270 6,8 C 11,1 C
14.10.2012 11:21 11,1 C 73 % 1003,0 hPa 0,0 l/m 8,3 km/h (2 Bft) W-SW 247 6,4 C 11,1 C
14.10.2012 11:26 11,0 C 73 % 1003,2 hPa 0,0 l/m 11,9 km/h (2 Bft) W 270 6,4 C 11,0 C
14.10.2012 11:31 11,0 C 72 % 1002,8 hPa 0,0 l/m 28,1 km/h (4 Bft) W 270 6,2 C 11,0 C
14.10.2012 11:36 10,9 C 73 % 1003,0 hPa 0,0 l/m 11,5 km/h (2 Bft) W 270 6,3 C 10,9 C
14.10.2012 11:41 10,9 C 72 % 1003,1 hPa 0,0 l/m 14,8 km/h (3 Bft) SW 225 6,1 C 10,9 C
14.10.2012 11:46 10,9 C 73 % 1003,1 hPa 0,0 l/m 9,4 km/h (2 Bft) SW 225 6,3 C 10,9 C
14.10.2012 11:51 10,9 C 72 % 1003,3 hPa 0,0 l/m 10,8 km/h (2 Bft) S-SW 202 6,1 C 10,9 C
14.10.2012 11:56 10,9 C 72 % 1003,2 hPa 0,0 l/m 16,2 km/h (3 Bft) S-SW 202 6,1 C 10,9 C
14.10.2012 12:01 10,8 C 72 % 1003,2 hPa 0,0 l/m 18,4 km/h (3 Bft) W-SW 247 6,0 C 10,8 C
14.10.2012 12:06 10,7 C 72 % 1003,2 hPa 0,0 l/m 8,6 km/h (2 Bft) W-SW 247 5,9 C 10,7 C
14.10.2012 12:11 10,7 C 73 % 1003,3 hPa 0,0 l/m 24,1 km/h (4 Bft) W-SW 247 6,1 C 10,7 C
14.10.2012 12:16 10,8 C 72 % 1003,3 hPa 0,0 l/m 7,6 km/h (2 Bft) SW 225 6,0 C 10,8 C
14.10.2012 12:21 10,8 C 72 % 1003,3 hPa 0,0 l/m 16,2 km/h (3 Bft) SW 225 6,0 C 10,8 C
14.10.2012 12:26 10,7 C 72 % 1003,2 hPa 0,0 l/m 19,4 km/h (3 Bft) W-SW 247 5,9 C 10,7 C
14.10.2012 12:31 10,7 C 72 % 1003,3 hPa 0,0 l/m 14,0 km/h (3 Bft) W 270 5,9 C 10,7 C
14.10.2012 12:36 10,5 C 71 % 1003,3 hPa 0,0 l/m 9,7 km/h (2 Bft) W-SW 247 5,5 C 10,5 C
14.10.2012 12:41 10,4 C 72 % 1003,3 hPa 0,0 l/m 5,8 km/h (2 Bft) SW 225 5,6 C 10,4 C
14.10.2012 12:46 10,5 C 72 % 1003,2 hPa 0,0 l/m 12,2 km/h (2 Bft) SW 225 5,7 C 10,5 C
14.10.2012 12:51 10,8 C 72 % 1003,0 hPa 0,0 l/m 7,9 km/h (2 Bft) S-SW 202 6,0 C 10,8 C
14.10.2012 12:56 11,2 C 71 % 1003,0 hPa 0,0 l/m 8,3 km/h (2 Bft) W 270 6,1 C 11,2 C
14.10.2012 13:01 11,3 C 70 % 1002,9 hPa 0,0 l/m 14,8 km/h (3 Bft) W 270 6,0 C 11,3 C
14.10.2012 13:06 11,4 C 70 % 1002,9 hPa 0,0 l/m 5,0 km/h (1 Bft) S-SW 202 6,1 C 11,4 C
14.10.2012 13:11 11,6 C 71 % 1002,7 hPa 0,0 l/m 9,4 km/h (2 Bft) SW 225 6,5 C 11,6 C
14.10.2012 13:16 11,8 C 68 % 1002,7 hPa 0,0 l/m 4,0 km/h (1 Bft) S 180 6,1 C 11,8 C
14.10.2012 13:21 11,9 C 68 % 1002,7 hPa 0,0 l/m 8,3 km/h (2 Bft) SW 225 6,2 C 11,9 C
14.10.2012 13:26 12,1 C 67 % 1002,6 hPa 0,0 l/m 6,8 km/h (2 Bft) S-SW 202 6,2 C 12,1 C
14.10.2012 13:31 12,1 C 66 % 1002,6 hPa 0,0 l/m 26,6 km/h (4 Bft) W-SW 247 5,9 C 12,1 C
14.10.2012 13:36 11,9 C 66 % 1002,4 hPa 0,0 l/m 6,5 km/h (2 Bft) SW 225 5,8 C 11,9 C
14.10.2012 13:41 11,9 C 66 % 1002,4 hPa 0,0 l/m 9,0 km/h (2 Bft) W-NW 292 5,8 C 11,9 C
14.10.2012 13:46 11,9 C 65 % 1002,5 hPa 0,0 l/m 6,1 km/h (2 Bft) W-SW 247 5,5 C 11,9 C
14.10.2012 13:51 11,8 C 65 % 1002,5 hPa 0,0 l/m 9,0 km/h (2 Bft) W 270 5,4 C 11,8 C
14.10.2012 13:56 11,6 C 66 % 1002,5 hPa 0,0 l/m 12,6 km/h (3 Bft) W-SW 247 5,5 C 11,6 C
14.10.2012 14:01 11,5 C 66 % 1002,4 hPa 0,0 l/m 6,5 km/h (2 Bft) W 270 5,4 C 11,5 C
14.10.2012 14:06 11,5 C 67 % 1002,4 hPa 0,0 l/m 4,3 km/h (1 Bft) W 270 5,6 C 11,5 C
14.10.2012 14:11 11,8 C 67 % 1002,4 hPa 0,0 l/m 11,2 km/h (2 Bft) W 270 5,9 C 11,8 C
14.10.2012 14:16 11,9 C 65 % 1002,3 hPa 0,0 l/m 6,5 km/h (2 Bft) W-SW 247 5,5 C 11,9 C
14.10.2012 14:21 11,9 C 66 % 1002,4 hPa 0,0 l/m 10,4 km/h (2 Bft) W 270 5,8 C 11,9 C
14.10.2012 14:26 12,1 C 66 % 1002,3 hPa 0,0 l/m 13,3 km/h (3 Bft) W-SW 247 5,9 C 12,1 C
14.10.2012 14:31 12,3 C 65 % 1002,3 hPa 0,0 l/m 11,5 km/h (2 Bft) S-SW 202 5,9 C 12,3 C
14.10.2012 14:36 12,1 C 65 % 1002,2 hPa 0,0 l/m 8,3 km/h (2 Bft) W-SW 247 5,7 C 12,1 C
14.10.2012 14:41 11,9 C 65 % 1002,4 hPa 0,0 l/m 23,0 km/h (4 Bft) W-SW 247 5,5 C 11,9 C
14.10.2012 14:46 11,8 C 64 % 1002,3 hPa 0,0 l/m 6,1 km/h (2 Bft) S-SW 202 5,2 C 11,8 C
14.10.2012 14:51 11,6 C 64 % 1002,3 hPa 0,0 l/m 4,7 km/h (1 Bft) SW 225 5,0 C 11,6 C
14.10.2012 14:56 11,5 C 65 % 1002,2 hPa 0,0 l/m 5,0 km/h (1 Bft) SW 225 5,2 C 11,5 C
14.10.2012 15:01 11,4 C 66 % 1002,3 hPa 0,0 l/m 2,2 km/h (1 Bft) S-SO 157 5,3 C 11,4 C
14.10.2012 15:06 11,3 C 67 % 1002,2 hPa 0,0 l/m 5,4 km/h (1 Bft) SW 225 5,4 C 11,3 C
14.10.2012 15:11 11,3 C 67 % 1002,3 hPa 0,0 l/m 4,7 km/h (1 Bft) W-SW 247 5,4 C 11,3 C
14.10.2012 15:16 11,3 C 67 % 1002,3 hPa 0,0 l/m 4,3 km/h (1 Bft) SW 225 5,4 C 11,3 C
14.10.2012 15:21 11,3 C 67 % 1002,2 hPa 0,0 l/m 2,2 km/h (1 Bft) S 180 5,4 C 11,3 C
14.10.2012 15:26 11,3 C 67 % 1002,2 hPa 0,0 l/m 0,0 km/h (0 Bft) W-SW 247 5,4 C 11,3 C
14.10.2012 15:31 11,4 C 68 % 1002,3 hPa 0,0 l/m 1,8 km/h (1 Bft) W-SW 247 5,7 C 11,4 C
14.10.2012 15:36 11,5 C 68 % 1002,3 hPa 0,0 l/m 5,8 km/h (2 Bft) S-SW 202 5,8 C 11,5 C
14.10.2012 15:41 11,6 C 68 % 1002,0 hPa 0,0 l/m 0,0 km/h (0 Bft) S-SW 202 5,9 C 11,6 C
14.10.2012 15:46 11,6 C 68 % 1002,1 hPa 0,0 l/m 5,0 km/h (1 Bft) SW 225 5,9 C 11,6 C
14.10.2012 15:51 11,7 C 67 % 1002,2 hPa 0,0 l/m 3,2 km/h (1 Bft) SW 225 5,8 C 11,7 C
14.10.2012 15:56 11,8 C 66 % 1002,2 hPa 0,0 l/m 12,2 km/h (2 Bft) W-SW 247 5,7 C 11,8 C
14.10.2012 16:01 11,8 C 65 % 1002,2 hPa 0,0 l/m 6,5 km/h (2 Bft) S 180 5,4 C 11,8 C
14.10.2012 16:06 11,8 C 64 % 1002,2 hPa 0,0 l/m 10,1 km/h (2 Bft) S-SW 202 5,2 C 11,8 C
14.10.2012 16:11 11,8 C 64 % 1002,1 hPa 0,0 l/m 6,5 km/h (2 Bft) W-SW 247 5,2 C 11,8 C
14.10.2012 16:16 11,8 C 64 % 1002,0 hPa 0,0 l/m 6,1 km/h (2 Bft) W-SW 247 5,2 C 11,8 C
14.10.2012 16:21 11,9 C 64 % 1002,0 hPa 0,0 l/m 9,0 km/h (2 Bft) SW 225 5,3 C 11,9 C
14.10.2012 16:26 11,9 C 64 % 1002,1 hPa 0,0 l/m 7,9 km/h (2 Bft) S-SW 202 5,3 C 11,9 C
14.10.2012 16:31 11,9 C 64 % 1002,2 hPa 0,0 l/m 3,6 km/h (1 Bft) S-SW 202 5,3 C 11,9 C
14.10.2012 16:36 11,8 C 64 % 1002,2 hPa 0,0 l/m 3,2 km/h (1 Bft) S-SO 157 5,2 C 11,8 C
14.10.2012 16:41 11,9 C 64 % 1002,3 hPa 0,0 l/m 5,8 km/h (2 Bft) S-SW 202 5,3 C 11,9 C
14.10.2012 16:46 11,9 C 63 % 1002,0 hPa 0,0 l/m 6,1 km/h (2 Bft) S-SO 157 5,1 C 11,9 C
14.10.2012 16:51 12,1 C 63 % 1002,0 hPa 0,0 l/m 7,2 km/h (2 Bft) SW 225 5,3 C 12,1 C
14.10.2012 16:56 12,1 C 64 % 1002,0 hPa 0,0 l/m 5,8 km/h (2 Bft) S-SW 202 5,5 C 12,1 C
14.10.2012 17:01 11,9 C 64 % 1002,0 hPa 0,0 l/m 2,5 km/h (1 Bft) S-SO 157 5,3 C 11,9 C
14.10.2012 17:06 12,1 C 64 % 1001,9 hPa 0,0 l/m 0,0 km/h (0 Bft) S-SW 202 5,5 C 12,1 C
14.10.2012 17:11 12,1 C 64 % 1001,9 hPa 0,0 l/m 5,0 km/h (1 Bft) SO 135 5,5 C 12,1 C
14.10.2012 17:16 11,9 C 64 % 1001,8 hPa 0,0 l/m 4,7 km/h (1 Bft) S-SO 157 5,3 C 11,9 C
14.10.2012 17:21 11,9 C 65 % 1002,0 hPa 0,0 l/m 3,6 km/h (1 Bft) S-SO 157 5,5 C 11,9 C
14.10.2012 17:26 11,9 C 65 % 1001,9 hPa 0,0 l/m 0,0 km/h (0 Bft) S 180 5,5 C 11,9 C
14.10.2012 17:31 11,8 C 65 % 1001,8 hPa 0,0 l/m 3,6 km/h (1 Bft) S-SO 157 5,4 C 11,8 C
14.10.2012 17:36 11,5 C 66 % 1001,9 hPa 0,0 l/m 0,0 km/h (0 Bft) SO 135 5,4 C 11,5 C
14.10.2012 17:41 11,4 C 67 % 1001,9 hPa 0,0 l/m 0,0 km/h (0 Bft) SO 135 5,5 C 11,4 C
14.10.2012 17:46 11,2 C 67 % 1001,9 hPa 0,0 l/m 1,8 km/h (1 Bft) SO 135 5,3 C 11,2 C
14.10.2012 17:51 11,1 C 67 % 1002,0 hPa 0,0 l/m 3,2 km/h (1 Bft) SO 135 5,2 C 11,1 C
14.10.2012 17:56 10,9 C 68 % 1001,9 hPa 0,0 l/m 2,5 km/h (1 Bft) SO 135 5,2 C 10,9 C
14.10.2012 18:01 10,8 C 68 % 1001,8 hPa 0,0 l/m 0,0 km/h (0 Bft) SO 135 5,1 C 10,8 C
14.10.2012 18:06 10,6 C 68 % 1001,9 hPa 0,0 l/m 0,0 km/h (0 Bft) SO 135 4,9 C 10,6 C
14.10.2012 18:11 10,5 C 69 % 1001,7 hPa 0,0 l/m 4,7 km/h (1 Bft) S-SO 157 5,1 C 10,5 C
14.10.2012 18:16 10,3 C 69 % 1001,7 hPa 0,0 l/m 2,2 km/h (1 Bft) SO 135 4,9 C 10,3 C
14.10.2012 18:21 10,1 C 70 % 1001,7 hPa 0,0 l/m 0,0 km/h (0 Bft) SO 135 4,9 C 10,1 C
14.10.2012 18:26 10,0 C 71 % 1001,8 hPa 0,0 l/m 3,2 km/h (1 Bft) S-SO 157 5,0 C 10,0 C
14.10.2012 18:31 9,9 C 71 % 1001,7 hPa 0,0 l/m 1,4 km/h (1 Bft) SO 135 4,9 C 9,9 C
14.10.2012 18:36 9,8 C 72 % 1001,7 hPa 0,0 l/m 1,4 km/h (1 Bft) SO 135 5,0 C 9,8 C
14.10.2012 18:41 9,6 C 72 % 1001,7 hPa 0,0 l/m 1,4 km/h (1 Bft) SO 135 4,8 C 9,6 C
14.10.2012 18:46 9,4 C 73 % 1001,8 hPa 0,0 l/m 1,1 km/h (1 Bft) SO 135 4,8 C 9,4 C
14.10.2012 18:51 9,3 C 73 % 1001,9 hPa 0,0 l/m 2,5 km/h (1 Bft) SO 135 4,7 C 9,3 C
14.10.2012 18:56 9,2 C 73 % 1001,7 hPa 0,0 l/m 2,2 km/h (1 Bft) SO 135 4,6 C 9,2 C
14.10.2012 19:01 9,1 C 74 % 1001,7 hPa 0,0 l/m 5,4 km/h (1 Bft) SO 135 4,7 C 8,6 C
14.10.2012 19:06 9,0 C 75 % 1001,9 hPa 0,0 l/m 3,2 km/h (1 Bft) SO 135 4,8 C 9,0 C
14.10.2012 19:11 8,9 C 75 % 1001,8 hPa 0,0 l/m 5,8 km/h (2 Bft) S-SO 157 4,7 C 8,3 C
14.10.2012 19:16 8,9 C 75 % 1001,7 hPa 0,0 l/m 4,3 km/h (1 Bft) S-SO 157 4,7 C 8,9 C
14.10.2012 19:21 8,9 C 75 % 1001,7 hPa 0,0 l/m 5,4 km/h (1 Bft) SO 135 4,7 C 8,4 C
14.10.2012 19:26 8,9 C 75 % 1001,8 hPa 0,0 l/m 6,1 km/h (2 Bft) S-SO 157 4,7 C 8,2 C
14.10.2012 19:31 8,9 C 75 % 1001,7 hPa 0,0 l/m 3,2 km/h (1 Bft) S 180 4,7 C 8,9 C
14.10.2012 19:36 9,1 C 75 % 1001,8 hPa 0,0 l/m 9,0 km/h (2 Bft) S 180 4,9 C 7,7 C
14.10.2012 19:41 9,1 C 75 % 1001,8 hPa 0,0 l/m 2,9 km/h (1 Bft) SO 135 4,9 C 9,1 C
14.10.2012 19:46 9,1 C 75 % 1001,7 hPa 0,0 l/m 0,0 km/h (0 Bft) SO 135 4,9 C 9,1 C
14.10.2012 19:51 9,1 C 75 % 1001,9 hPa 0,0 l/m 3,6 km/h (1 Bft) S-SO 157 4,9 C 9,1 C
14.10.2012 19:56 9,1 C 74 % 1001,7 hPa 0,0 l/m 0,0 km/h (0 Bft) S 180 4,7 C 9,1 C
14.10.2012 20:01 9,0 C 74 % 1001,7 hPa 0,0 l/m 2,2 km/h (1 Bft) SO 135 4,6 C 9,0 C
14.10.2012 20:06 8,9 C 75 % 1001,6 hPa 0,0 l/m 4,7 km/h (1 Bft) S-SO 157 4,7 C 8,6 C
14.10.2012 20:11 8,9 C 75 % 1001,6 hPa 0,0 l/m 2,9 km/h (1 Bft) S-SO 157 4,7 C 8,9 C
14.10.2012 20:16 8,9 C 75 % 1001,5 hPa 0,0 l/m 3,2 km/h (1 Bft) SO 135 4,7 C 8,9 C
14.10.2012 20:21 8,9 C 75 % 1001,5 hPa 0,0 l/m 3,6 km/h (1 Bft) SO 135 4,7 C 8,9 C
14.10.2012 20:26 8,9 C 75 % 1001,4 hPa 0,0 l/m 4,7 km/h (1 Bft) SO 135 4,7 C 8,6 C
14.10.2012 20:31 8,9 C 75 % 1001,5 hPa 0,0 l/m 4,3 km/h (1 Bft) SO 135 4,7 C 8,9 C
14.10.2012 20:36 8,8 C 75 % 1001,5 hPa 0,0 l/m 2,9 km/h (1 Bft) SO 135 4,6 C 8,8 C
14.10.2012 20:41 8,8 C 75 % 1001,6 hPa 0,0 l/m 4,0 km/h (1 Bft) S-SO 157 4,6 C 8,8 C
14.10.2012 20:46 8,8 C 75 % 1001,7 hPa 0,0 l/m 4,0 km/h (1 Bft) S-SO 157 4,6 C 8,8 C
14.10.2012 20:51 8,8 C 75 % 1001,7 hPa 0,0 l/m 2,2 km/h (1 Bft) SO 135 4,6 C 8,8 C
14.10.2012 20:56 8,7 C 75 % 1001,7 hPa 0,0 l/m 0,0 km/h (0 Bft) SO 135 4,5 C 8,7 C
14.10.2012 21:01 8,7 C 75 % 1001,7 hPa 0,0 l/m 0,0 km/h (0 Bft) SO 135 4,5 C 8,7 C
14.10.2012 21:06 8,7 C 76 % 1001,6 hPa 0,0 l/m 3,2 km/h (1 Bft) O-SO 112 4,7 C 8,7 C
14.10.2012 21:11 8,6 C 76 % 1001,6 hPa 0,0 l/m 2,2 km/h (1 Bft) O-SO 112 4,6 C 8,6 C
14.10.2012 21:16 8,5 C 77 % 1001,5 hPa 0,0 l/m 2,2 km/h (1 Bft) O-SO 112 4,7 C 8,5 C
14.10.2012 21:21 8,4 C 77 % 1001,6 hPa 0,0 l/m 1,1 km/h (1 Bft) O-SO 112 4,6 C 8,4 C
14.10.2012 21:26 8,4 C 77 % 1001,5 hPa 0,0 l/m 2,9 km/h (1 Bft) O-SO 112 4,6 C 8,4 C
14.10.2012 21:31 8,3 C 78 % 1001,6 hPa 0,0 l/m 1,4 km/h (1 Bft) O-SO 112 4,7 C 8,3 C
14.10.2012 21:36 8,2 C 78 % 1001,5 hPa 0,0 l/m 3,2 km/h (1 Bft) O-SO 112 4,6 C 8,2 C
14.10.2012 21:41 8,2 C 78 % 1001,5 hPa 0,0 l/m 2,2 km/h (1 Bft) O-SO 112 4,6 C 8,2 C
14.10.2012 21:46 8,1 C 79 % 1001,6 hPa 0,0 l/m 1,8 km/h (1 Bft) SO 135 4,7 C 8,1 C
14.10.2012 21:51 8,1 C 79 % 1001,6 hPa 0,0 l/m 3,2 km/h (1 Bft) SO 135 4,7 C 8,1 C
14.10.2012 21:56 8,1 C 79 % 1001,7 hPa 0,0 l/m 3,2 km/h (1 Bft) O-SO 112 4,7 C 8,1 C
14.10.2012 22:01 8,1 C 80 % 1001,6 hPa 0,0 l/m 1,1 km/h (1 Bft) SO 135 4,9 C 8,1 C
14.10.2012 22:06 8,1 C 80 % 1001,6 hPa 0,0 l/m 0,0 km/h (0 Bft) O-SO 112 4,9 C 8,1 C
14.10.2012 22:11 8,1 C 80 % 1001,6 hPa 0,0 l/m 3,2 km/h (1 Bft) SO 135 4,9 C 8,1 C
14.10.2012 22:16 8,1 C 80 % 1001,5 hPa 0,0 l/m 2,5 km/h (1 Bft) O-SO 112 4,9 C 8,1 C
14.10.2012 22:21 8,1 C 80 % 1001,7 hPa 0,0 l/m 2,9 km/h (1 Bft) SO 135 4,9 C 8,1 C
14.10.2012 22:26 8,2 C 80 % 1001,6 hPa 0,0 l/m 3,2 km/h (1 Bft) S-SO 157 5,0 C 8,2 C
14.10.2012 22:31 8,3 C 80 % 1001,7 hPa 0,0 l/m 3,6 km/h (1 Bft) S-SO 157 5,1 C 8,3 C
14.10.2012 22:36 8,4 C 79 % 1001,6 hPa 0,0 l/m 3,6 km/h (1 Bft) S 180 5,0 C 8,4 C
14.10.2012 22:41 8,4 C 79 % 1001,6 hPa 0,0 l/m 3,6 km/h (1 Bft) S-SW 202 5,0 C 8,4 C
14.10.2012 22:46 8,4 C 79 % 1001,6 hPa 0,0 l/m 2,2 km/h (1 Bft) S-SO 157 5,0 C 8,4 C
14.10.2012 22:51 8,5 C 79 % 1001,6 hPa 0,0 l/m 1,8 km/h (1 Bft) S-SO 157 5,1 C 8,5 C
14.10.2012 22:56 8,4 C 80 % 1001,7 hPa 0,0 l/m 4,0 km/h (1 Bft) S 180 5,2 C 8,4 C
14.10.2012 23:01 8,4 C 80 % 1001,7 hPa 0,0 l/m 2,5 km/h (1 Bft) SO 135 5,2 C 8,4 C
14.10.2012 23:06 8,4 C 80 % 1001,7 hPa 0,0 l/m 4,7 km/h (1 Bft) S-SO 157 5,2 C 8,0 C
14.10.2012 23:11 8,3 C 81 % 1001,7 hPa 0,0 l/m 4,0 km/h (1 Bft) S 180 5,2 C 8,3 C
14.10.2012 23:16 8,3 C 82 % 1001,7 hPa 0,5 l/m 0,0 km/h (0 Bft) S-SO 157 5,4 C 8,3 C
14.10.2012 23:21 8,2 C 82 % 1001,6 hPa 0,0 l/m 0,0 km/h (0 Bft) S-SO 157 5,3 C 8,2 C
14.10.2012 23:26 8,1 C 83 % 1001,5 hPa 0,0 l/m 0,0 km/h (0 Bft) S-SO 157 5,4 C 8,1 C
14.10.2012 23:31 8,1 C 83 % 1001,5 hPa 0,0 l/m 0,0 km/h (0 Bft) S-SO 157 5,4 C 8,1 C
14.10.2012 23:36 8,1 C 83 % 1001,6 hPa 0,0 l/m 1,4 km/h (1 Bft) S-SO 157 5,4 C 8,1 C
14.10.2012 23:41 8,0 C 84 % 1001,6 hPa 0,0 l/m 2,2 km/h (1 Bft) S-SO 157 5,5 C 8,0 C
14.10.2012 23:46 7,9 C 84 % 1001,7 hPa 0,0 l/m 1,4 km/h (1 Bft) S-SO 157 5,4 C 7,9 C
14.10.2012 23:51 7,9 C 85 % 1001,6 hPa 0,5 l/m 0,0 km/h (0 Bft) SO 135 5,5 C 7,9 C
14.10.2012 23:56 7,8 C 85 % 1001,8 hPa 0,0 l/m 0,0 km/h (0 Bft) SO 135 5,4 C 7,8 C
_ Min-Zeit 02:51 16:46 20:26 - 00:06 - - 20:56 08:36
Minimum _ 7,2 C 63 % 1001,4 hPa - 0,0 km/h (0 Bft) - - 4,5 C 5,8 C
_ Max-Zeit 14:31 06:26 00:01 04:41 11:31 - - 11:16 14:31
Maximum _ 12,3 C 89 % 1006,4 hPa 0,5 l/m 28,1 km/h
W (4 Bft)
- - 6,8 C 12,3 C
Durchschnitt _ 9,2 C 78 % 1002,8 hPa #2,1 l/m 5,7 km/h (1 Bft) SO - 5,6 C 8,9 C
(c) by David Heller